STARLINK-11543, 62981

Orbit data source: Space-Track

STARLINK-11543, 62981 is a payload satellite owned by SpaceX/Seattle (US) in LEO that was launched on Tue, 11 Feb 2025 UTC via an FALCON 9 launch vehicle from the Air Force Eastern Test Range (AFETR). Payload-class satellites include a variety of spacecraft equipped with specific instruments for various scientific and technological missions. These include communications satellites like Starlink; space stations such as the ISS; scientific satellites like the Hubble; Earth observation satellites from companies like Planet Labs, Umbra, and HawkEye 360; GPS; miniature CubeSats for education and research; and military/defense satellites.

Loading next visibility...
Identifier
62981, 2025-031A
Orbit
LEO
Country
Flag of USUS
Related business
Manufacturer
SpaceX/Seattle
Mission
Operational Commercial Communications
Bus & Motor
STARLINK V2MD, Unknown motor
Mass
960 kg wet, ~910 kg dry
Launch date (UTC)
2025-02-11 (1 year ago)
Launch vehicle
FALCON 9
Launch site
Air Force Eastern Test Range (AFETR)
Object type
Payload
Rocket body
Debris
Shape & HBR
Box + 2 Pan, 18.1 m
Radar Cross Section
36.964 m², Large (>1 m²)

Expand to show TLE details & history
Last TLE update: 16 hours ago

TLE from 16 hours ago
0 STARLINK-11543
1 62981U 25031A   26171.23281222  .00221694  00000-0  16864-2 0  9997
2 62981  42.9991 103.0209 0001525 267.0999  92.9694 15.70826972 78878
Epoch: 2026-06-20T05:35Z
TLE epoch observation values (Epoch: 2026-06-20T05:35:14.975Z)
Latitude
-0.00004°
Longitude
110.75808°
Altitude
356.357 km
Speed
7.697 km/s
True Right ascension
06h 52m 05s
True Declination
0° 00' 00"
Sunlit
Object was in daylight at epoch
Visualization orbit readout
Latitude
Unknown
Longitude
Unknown
Altitude
Unknown
Speed
Unknown
Apparent Right ascension
Unknown
Apparent Declination
Unknown
Sunlit
N/A
Visualization observer readout
Local Sidereal Time
08:33:28
Azimuth
Unknown
Elevation
Unknown
Doppler factor
Unknown
Orbital elements
Apogee altitude
359.541 km
Perigee altitude
357.487 km
Semi-major axis
6,736.651 km
Eccentricity
0.00015
Inclination
42.9991°
RAAN
103.0209°
Arg. of periapsis
267.0999°
True anomaly
92.98685°
Mean anomaly
92.9694°
Eccentric anomaly
92.97813°
Mean motion
3.92534 °/min
Orbital period
91.71 mins
BSTAR
0.0016864
Loading maneuver chart data...
Computing Atmospheric mass density...
Loading historical data...
Loading historical data...
Loading historical data...
Loading historical data...
Loading historical data...
Loading historical data...
Loading historical data...

Documentation

Showing up to 5 results
|